This is the latest recevied weather packets stored in our database for station/object K4CRS-13. If no packets are shown the sender has not sent any weather packets the latest 10 day(s).
| Time | Temp. | Humidity | Pressure | Rain* | Wind** | Luminosity | Snow |
|---|---|---|---|---|---|---|---|
| 1778027424 | 20.56° C | 77% | 1045.1 hPa | 0 mm | - | 6 W/m² | - |
| 1778027120 | 20.56° C | 77% | 1045.2 hPa | 0 mm | - | 8 W/m² | - |
| 1778026816 | 20.56° C | 77% | 1045.2 hPa | 0 mm | - | 7 W/m² | - |
| 1778026512 | 20.56° C | 77% | 1045.1 hPa | 0 mm | - | 9 W/m² | - |
| 1778026210 | 20.56° C | 76% | 1045.1 hPa | 0 mm | - | 10 W/m² | - |
| 1778025907 | 20.56° C | 76% | 1045.1 hPa | 0 mm | - | 22 W/m² | - |
| 1778025604 | 20.56° C | 76% | 1045.3 hPa | 0 mm | - | 25 W/m² | - |
| 1778025302 | 20.56° C | 76% | 1045.4 hPa | 0 mm | - | 14 W/m² | - |
| 1778024998 | 21.11° C | 75% | 1045.3 hPa | 0 mm | - | 20 W/m² | - |
| 1778024696 | 21.11° C | 75% | 1045.2 hPa | 0 mm | - | 22 W/m² | - |
| 1778024393 | 21.11° C | 75% | 1045.3 hPa | 0 mm | - | 22 W/m² | - |
| 1778024090 | 21.11° C | 74% | 1045.1 hPa | 0 mm | - | 20 W/m² | - |
| 1778023787 | 21.11° C | 74% | 1045.3 hPa | 0 mm | - | 25 W/m² | - |
| 1778023486 | 21.11° C | 74% | 1045.6 hPa | 0 mm | - | 30 W/m² | - |
| 1778023182 | 21.11° C | 73% | 1045.5 hPa | 0 mm | - | 56 W/m² | - |
| 1778022879 | 21.11° C | 73% | 1045.3 hPa | 0 mm | - | 43 W/m² | - |
| 1778022578 | 21.11° C | 73% | 1045.2 hPa | 0 mm | - | 25 W/m² | - |
| 1778022275 | 21.11° C | 74% | 1045.5 hPa | 0 mm | - | 32 W/m² | - |
| 1778021971 | 21.11° C | 73% | 1045.6 hPa | 0 mm | - | 41 W/m² | - |
| 1778021668 | 21.11° C | 73% | 1045.5 hPa | 0 mm | - | 32 W/m² | - |
| 1778021364 | 21.11° C | 73% | 1045.7 hPa | 0 mm | - | 44 W/m² | - |
| 1778021062 | 21.11° C | 73% | 1045.8 hPa | 0 mm | - | 37 W/m² | - |
| 1778020758 | 21.11° C | 74% | 1045.8 hPa | 0 mm | - | 34 W/m² | - |
| 1778020456 | 21.11° C | 73% | 1045.9 hPa | 0 mm | - | 49 W/m² | - |
| 1778020152 | 21.11° C | 72% | 1045.8 hPa | 0 mm | - | 40 W/m² | - |
* Rain latest hour (hover to see other rain measurements)
** Current wind speed in m/s (hover to see current wind gust speed)